[[{"header":{"parameterUnit":"m.s-1","parameterCategory":2,"la1":30.2991,"la2":30.254,"lo1":-89.0895,"lo2":-89.0444,"dy":0.0017,"dx":0.0017,"nx":28,"ny":28,"refTime":"2024-05-11T09:00:00:Z","depth":"0","parameterNumber":2,"parameterNumberName":"U-component_of_CURRENTS"},"data":[0,0,0,0,0,0,0,0,0,0,0,0,0,0,0,0,0,0,0,0,0,0,0,0,0,0,0,0,0,0,0,0,0,0,0,0,0,0,0,0,0,0,0,0,0,0,0,0,0,0,0,0,0,0,0,0,0,0,-0.2167,-0.2167,0,-0.2205,-0.2206,-0.2206,-0.2186,-0.2185,-0.2185,-0.2184,-0.217,-0.2171,-0.2171,0,0,0,0,0,0,0,0,0,0,0,0,0,-0.2081,-0.2082,-0.2167,-0.2167,-0.2168,-0.2205,-0.2206,-0.2206,-0.2186,-0.2185,-0.2184,-0.2183,-0.217,-0.2171,-0.2171,0,0,0,0,0,0,0,0,0,0,0,0,0,-0.2117,-0.2083,-0.2166,-0.2164,-0.2164,-0.2205,-0.2206,-0.2206,-0.2187,-0.2185,-0.2184,-0.2183,-0.217,-0.2171,-0.2171,-0.2202,0,0,-0.2173,-0.2174,0,0,0,0,0,0,0,0,-0.2115,-0.212,-0.2163,-0.2164,-0.2164,-0.2191,-0.2171,-0.2203,-0.2187,-0.2176,-0.2184,-0.2182,-0.2174,-0.2175,-0.2183,-0.2201,-0.2201,-0.2173,-0.2174,-0.2174,-0.2174,0,0,0,0,0,0,0,-0.2113,-0.2118,-0.218,-0.2164,-0.2165,-0.2162,-0.2166,-0.2177,-0.218,-0.2177,-0.2176,-0.2183,-0.2174,-0.2183,-0.2183,-0.2201,-0.2173,-0.2174,-0.2174,-0.2175,-0.2286,-0.2289,0,0,0,0,0,0,-0.2112,-0.2116,-0.2179,-0.2182,-0.2138,-0.2165,-0.2169,-0.2182,-0.2181,-0.2181,-0.2185,-0.2182,-0.2182,-0.2182,-0.2182,-0.2219,-0.2174,-0.2175,-0.2175,-0.2284,-0.2287,-0.229,0,0,0,0,0,0,-0.2111,-0.2118,-0.2178,-0.215,-0.2158,-0.2168,-0.2183,-0.2184,-0.2186,-0.2188,-0.2185,-0.2186,-0.2181,-0.2181,-0.2209,-0.2218,-0.2175,-0.2176,-0.2281,-0.2285,-0.2288,-0.2293,0,0,0,0,0,0,-0.2108,-0.2117,-0.2123,-0.2151,-0.2159,-0.2202,-0.2185,-0.2186,-0.2194,-0.2191,-0.2188,-0.2186,-0.218,-0.2208,-0.221,-0.2219,-0.2176,-0.2277,-0.2282,-0.2287,-0.229,-0.2297,-0.2302,0,0,0,0,0,-0.2105,-0.2119,-0.2123,-0.2131,-0.2169,-0.2203,-0.2208,-0.2209,-0.2195,-0.2204,-0.2214,-0.2186,-0.2239,-0.2211,-0.2212,-0.2221,-0.2275,-0.2281,-0.2287,-0.2287,-0.2295,-0.2302,0,0,0,0,0,0,-0.2082,-0.212,-0.2125,-0.2148,-0.2174,-0.22,-0.2207,-0.2211,-0.2226,-0.222,-0.2214,-0.2214,-0.2241,-0.2247,-0.2215,-0.2275,-0.2255,-0.2261,-0.2255,-0.2263,-0.2269,-0.2272,-0.2177,0,0,0,0,0,-0.2083,-0.21,-0.2138,-0.2154,-0.2169,-0.2188,-0.2199,-0.2206,-0.2226,-0.2229,-0.2232,-0.2247,-0.227,-0.2276,-0.2295,-0.2325,-0.2328,-0.2339,-0.2345,-0.235,-0.236,-0.2384,-0.2392,-0.2308,-0.2308,-0.2308,0,0,-0.2077,-0.2099,-0.2107,-0.2149,-0.2166,-0.2201,-0.2191,-0.2213,-0.2242,-0.2227,-0.2258,-0.2264,-0.2286,-0.232,-0.2333,-0.232,-0.2378,-0.2358,-0.2361,-0.2368,-0.239,-0.2398,-0.2404,-0.2312,-0.2312,-0.2311,0,0,-0.2075,-0.2096,-0.2111,-0.2142,-0.2177,-0.2201,-0.2208,-0.2242,-0.2254,-0.2293,-0.2293,-0.2315,-0.2343,-0.2365,-0.2379,-0.244,-0.241,-0.2442,-0.2469,-0.2492,-0.2498,-0.2503,-0.251,-0.2515,-0.2444,-0.2444,-0.2444,0,-0.2063,-0.2097,-0.212,-0.2152,-0.2181,-0.2203,-0.2237,-0.2265,-0.2302,-0.2326,-0.2304,-0.237,-0.237,-0.2428,-0.2442,-0.2449,-0.2451,-0.2426,-0.2496,-0.2501,-0.2506,-0.2512,-0.2518,-0.2445,-0.2445,-0.2445,-0.2445,0,-0.2083,-0.2112,-0.2126,-0.2177,-0.2213,-0.2244,-0.2296,-0.233,-0.2343,-0.2369,-0.2421,-0.2432,-0.2469,-0.2474,-0.2467,-0.2517,-0.2501,-0.2494,-0.2462,-0.2514,-0.2518,-0.2524,-0.2446,-0.2446,-0.2446,-0.2446,0,0,-0.2046,-0.2124,-0.2127,-0.2163,-0.2232,-0.2266,-0.2329,-0.2396,-0.244,-0.2464,-0.2516,-0.2545,-0.2538,-0.2557,-0.2554,-0.257,-0.259,-0.2541,-0.2542,-0.2523,-0.2626,-0.2584,-0.2586,-0.2583,-0.2585,-0.2586,-0.2609,0,-0.2052,-0.211,-0.2155,-0.2221,-0.2261,-0.2323,-0.2385,-0.2449,-0.2491,-0.2547,-0.2569,-0.2606,-0.2575,-0.2581,-0.2596,-0.2596,-0.2609,-0.2584,-0.2601,-0.2602,-0.2538,-0.2594,-0.2497,-0.2507,-0.2615,-0.2616,-0.2617,0,-0.2054,-0.2099,-0.2158,-0.2261,-0.2285,-0.233,-0.2439,-0.2496,-0.2586,-0.2616,-0.2657,-0.2669,-0.2703,-0.2661,-0.2688,-0.2668,-0.2649,-0.2643,-0.2644,-0.2609,-0.2572,-0.2479,-0.2514,-0.2474,-0.2626,-0.2626,-0.2625,0,-0.2013,-0.2104,-0.215,-0.2184,-0.2299,-0.2343,-0.2405,-0.2506,-0.2565,-0.2647,-0.2684,-0.2731,-0.2745,-0.2745,-0.2726,-0.2703,-0.2751,-0.2718,-0.2671,-0.2667,-0.2592,-0.258,-0.2571,-0.2742,-0.2742,-0.2742,-0.2742,0,-0.2004,-0.2043,-0.2133,-0.216,-0.2236,-0.232,-0.2405,-0.2478,-0.2577,-0.2639,-0.2697,-0.2742,-0.2763,-0.279,-0.2762,-0.2741,-0.2779,-0.2689,-0.2679,-0.2593,-0.258,-0.2548,-0.2571,-0.2743,-0.2742,-0.2742,-0.2742,0,-0.1947,-0.2006,-0.2067,-0.2176,-0.2214,-0.2261,-0.2392,-0.2446,-0.2549,-0.263,-0.2651,-0.2752,-0.2778,-0.2804,-0.2814,-0.2779,-0.2722,-0.2751,-0.2643,-0.2619,-0.251,-0.2538,-0.2539,-0.246,-0.2692,-0.2691,-0.269,0,-0.1924,-0.1942,-0.205,-0.2079,-0.2123,-0.2209,-0.2266,-0.2403,-0.2457,-0.2623,-0.2643,-0.2727,-0.2759,-0.2787,-0.275,-0.2723,-0.2695,-0.262,-0.2559,-0.2505,-0.253,-0.2521,-0.2453,-0.2461,-0.2458,-0.2456,-0.2454,0,-0.1869,-0.1896,-0.1943,-0.1999,-0.2053,-0.2128,-0.2213,-0.2263,-0.2414,-0.2496,-0.2587,-0.2638,-0.2693,-0.2646,-0.2643,-0.2599,-0.2548,-0.2576,-0.2553,-0.2385,-0.2345,-0.2262,-0.244,-0.2436,-0.2438,-0.2439,-0.244,-0.2441,-0.1808,-0.1818,-0.186,-0.191,-0.1966,-0.2006,-0.2031,-0.213,-0.2213,-0.2319,-0.245,-0.2519,-0.2553,-0.2526,-0.2495,-0.2387,-0.2411,-0.2299,-0.2349,-0.2351,-0.2248,-0.2384,-0.2349,-0.235,-0.2352,-0.2353,-0.2353,0,-0.1725,-0.1738,-0.1768,-0.1815,-0.1821,-0.1889,-0.1961,-0.1963,-0.201,-0.2155,-0.2239,-0.2354,-0.2325,-0.2351,-0.2289,-0.2193,-0.2107,-0.2132,-0.2091,-0.2036,-0.2174,-0.2133,-0.201,-0.201,-0.201,-0.201,-0.201,-0.201,-0.1678,-0.1663,-0.1679,-0.1651,-0.1675,-0.1643,-0.1654,-0.1682,-0.1754,-0.1851,-0.1977,-0.2152,-0.2191,-0.2355,-0.2231,-0.2115,-0.2028,-0.1972,-0.1976,-0.2078,-0.2096,-0.2114,-0.2077,-0.1944,-0.1944,-0.1727,-0.1725,-0.1725]},{"header":{"parameterUnit":"m.s-1","parameterCategory":2,"la1":30.2991,"la2":30.254,"lo1":-89.0895,"lo2":-89.0444,"dy":0.0017,"dx":0.0017,"nx":28,"ny":28,"refTime":"2024-05-11T09:00:00:Z","depth":"0","parameterNumber":3,"parameterNumberName":"V-component_of_CURRENTS"},"data":[0,0,0,0,0,0,0,0,0,0,0,0,0,0,0,0,0,0,0,0,0,0,0,0,0,0,0,0,0,0,0,0,0,0,0,0,0,0,0,0,0,0,0,0,0,0,0,0,0,0,0,0,0,0,0,0,0,0,-0.011,-0.0109,0,-0.0003,-0.0002,-0.0001,0.0067,0.0067,0.0068,0.0068,0.0179,0.0182,0.0184,0,0,0,0,0,0,0,0,0,0,0,0,0,-0.0201,-0.02,-0.011,-0.0109,-0.0107,-0.0004,-0.0002,-0.0001,0.0067,0.0067,0.0068,0.0068,0.0178,0.0181,0.0185,0,0,0,0,0,0,0,0,0,0,0,0,0,-0.0134,-0.02,-0.011,-0.0062,-0.0057,-0.0004,-0.0002,-0.0,0.0067,0.0067,0.0068,0.0068,0.0177,0.0181,0.0185,0.0202,0,0,0.0197,0.0199,0,0,0,0,0,0,0,0,-0.0138,-0.013,-0.007,-0.0065,-0.006,0.0018,0.0007,0.0067,0.0067,0.0021,0.0068,0.0068,0.0124,0.0133,0.0154,0.0207,0.0212,0.0198,0.02,0.0202,0.0203,0,0,0,0,0,0,0,-0.0143,-0.0134,-0.0066,-0.0069,-0.0063,-0.0028,-0.0018,0.0019,0.007,0.0025,0.003,0.004,0.0128,0.015,0.0157,0.0213,0.0198,0.0201,0.0204,0.0205,0.0294,0.0294,0,0,0,0,0,0,-0.0161,-0.0139,-0.007,-0.0063,-0.01,-0.0027,-0.0016,-0.0006,0.007,0.0082,0.0039,0.0042,0.0143,0.0152,0.0161,0.0179,0.0202,0.0206,0.0208,0.0294,0.0294,0.0294,0,0,0,0,0,0,-0.0164,-0.0156,-0.0074,-0.01,-0.0087,-0.0026,-0.0016,-0.0005,0.0017,0.008,0.0092,0.0049,0.0143,0.0155,0.0193,0.0183,0.0208,0.0211,0.0294,0.0294,0.0294,0.0218,0,0,0,0,0,0,-0.0167,-0.0158,-0.0159,-0.0101,-0.0086,-0.0052,-0.0016,-0.0003,0.0022,0.0027,0.0093,0.0104,0.0144,0.0186,0.0197,0.019,0.0214,0.0294,0.0294,0.0294,0.022,0.0215,0.021,0,0,0,0,0,-0.0171,-0.0176,-0.016,-0.0151,-0.0089,-0.0053,-0.0042,0.0003,0.0022,0.0026,0.0073,0.0102,0.0193,0.019,0.0202,0.0195,0.0294,0.0294,0.0294,0.0223,0.0216,0.0211,0,0,0,0,0,0,-0.0217,-0.0168,-0.0149,-0.0139,-0.0104,-0.0042,-0.0034,-0.0003,0.0039,0.0044,0.0103,0.0117,0.0144,0.0182,0.0177,0.0222,0.0247,0.025,0.0189,0.0183,0.0178,0.0168,0.0218,0,0,0,0,0,-0.0229,-0.0221,-0.0169,-0.0163,-0.0148,-0.0093,-0.0073,-0.0042,0.0003,0.0022,0.0067,0.0115,0.0154,0.0177,0.0216,0.0242,0.0282,0.0246,0.0241,0.0236,0.0237,0.0293,0.0293,0.0293,0.0293,0.0293,0,0,-0.0246,-0.0219,-0.0214,-0.0173,-0.014,-0.0127,-0.008,-0.0056,-0.0043,0.0026,0.0052,0.0097,0.0156,0.0184,0.02,0.0215,0.0256,0.0236,0.0232,0.0235,0.0293,0.0292,0.0292,0.0293,0.0293,0.0293,0,0,-0.028,-0.0253,-0.0257,-0.0231,-0.019,-0.0156,-0.0154,-0.0098,-0.0073,-0.0042,0.001,0.0052,0.0108,0.0153,0.0183,0.0176,0.0224,0.0182,0.0153,0.0207,0.0207,0.0208,0.0247,0.0252,0.0184,0.0183,0.0183,0,-0.0304,-0.03,-0.0254,-0.025,-0.0238,-0.0176,-0.0181,-0.0144,-0.0084,-0.0065,-0.0047,0.0047,0.0095,0.014,0.0139,0.0164,0.0197,0.0167,0.02,0.0201,0.0204,0.0244,0.025,0.018,0.018,0.0181,0.0181,0,-0.0335,-0.0334,-0.0335,-0.0311,-0.0292,-0.0286,-0.0234,-0.0212,-0.0178,-0.0134,-0.0088,-0.0016,0.0042,0.0061,0.01,0.0137,0.0156,0.0182,0.021,0.0199,0.0242,0.025,0.0175,0.0176,0.0177,0.0178,0,0,-0.0382,-0.0364,-0.0363,-0.0373,-0.0326,-0.0319,-0.0298,-0.0261,-0.0249,-0.0186,-0.0162,-0.0085,-0.0039,-0.0002,0.0055,0.0106,0.0148,0.0144,0.0149,0.0175,0.0256,0.03,0.0313,0.0177,0.0178,0.0179,0.0275,0,-0.0422,-0.0444,-0.0416,-0.044,-0.045,-0.0395,-0.0384,-0.0341,-0.0292,-0.0252,-0.0165,-0.0122,-0.0064,-0.004,0.0022,0.0119,0.0168,0.0119,0.0271,0.0275,0.031,0.0324,0.0346,0.0437,0.0283,0.0285,0.0286,0,-0.0456,-0.0471,-0.0503,-0.0514,-0.0512,-0.0512,-0.0486,-0.0468,-0.0387,-0.0349,-0.0277,-0.0204,-0.0114,-0.007,0.0091,0.0055,0.0146,0.0222,0.0228,0.0304,0.0335,0.0428,0.0458,0.0632,0.0299,0.0298,0.0297,0,-0.0515,-0.0533,-0.0569,-0.0568,-0.0561,-0.0566,-0.0557,-0.0495,-0.0487,-0.0404,-0.0382,-0.0261,-0.0204,-0.007,0.0098,0.0092,0.0275,0.0288,0.0412,0.0415,0.0484,0.0492,0.0696,0.0396,0.0396,0.0396,0.0395,0,-0.0565,-0.0595,-0.0602,-0.0621,-0.067,-0.0632,-0.0656,-0.0624,-0.0573,-0.0565,-0.0438,-0.0398,-0.0201,-0.0066,0.0081,0.0279,0.0267,0.0414,0.045,0.0457,0.0461,0.0656,0.0728,0.0399,0.0398,0.0398,0.0397,0,-0.0616,-0.0618,-0.0671,-0.0689,-0.0699,-0.0731,-0.0742,-0.0753,-0.0689,-0.0672,-0.0651,-0.0497,-0.0317,-0.0108,0.0118,0.0254,0.0548,0.0509,0.0499,0.0533,0.0799,0.0865,0.1098,0.1185,0.0653,0.0655,0.0656,0,-0.0645,-0.0673,-0.0731,-0.0776,-0.0788,-0.0827,-0.0854,-0.0819,-0.0823,-0.0732,-0.0728,-0.0552,-0.0417,-0.0057,0.0221,0.0499,0.0631,0.0674,0.0674,0.0832,0.0932,0.0974,0.1032,0.0729,0.0731,0.0732,0.0734,0,-0.0706,-0.0722,-0.0769,-0.0859,-0.0912,-0.097,-0.0996,-0.1018,-0.0966,-0.0932,-0.0845,-0.0726,-0.0356,-0.0011,0.037,0.053,0.0804,0.0715,0.0893,0.1026,0.1073,0.1166,0.0636,0.0748,0.0746,0.0745,0.0745,0.0744,-0.0752,-0.0806,-0.0868,-0.0953,-0.102,-0.109,-0.1136,-0.1145,-0.1153,-0.1088,-0.0945,-0.0742,-0.0203,0.0343,0.0558,0.0996,0.0943,0.1102,0.1172,0.1202,0.1289,0.0784,0.0928,0.0928,0.0928,0.0927,0.0927,0,-0.0809,-0.0868,-0.0958,-0.106,-0.1146,-0.1155,-0.1216,-0.1247,-0.126,-0.1153,-0.1034,-0.0478,0.007,0.0581,0.1222,0.1448,0.1494,0.1546,0.162,0.1658,0.1233,0.1241,0.1442,0.1441,0.1441,0.1441,0.1441,0.1441,-0.0844,-0.0939,-0.0988,-0.1143,-0.1212,-0.131,-0.1347,-0.1369,-0.131,-0.1118,-0.0841,-0.0598,0.0178,0.1278,0.1879,0.191,0.2097,0.2064,0.2172,0.189,0.1854,0.1819,0.1846,0.217,0.2171,0.2566,0.257,0.2573]}],[{"header":{"parameterUnit":"m.s-1","parameterCategory":2,"la1":30.2991,"la2":30.254,"lo1":-89.0895,"lo2":-89.0444,"dy":0.0017,"dx":0.0017,"nx":28,"ny":28,"refTime":"2024-05-11T09:00:00:Z","depth":"2","parameterNumber":2,"parameterNumberName":"U-component_of_CURRENTS"},"data":[0,0,0,0,0,0,0,0,0,0,0,0,0,0,0,0,0,0,0,0,0,0,0,0,0,0,0,0,0,0,0,0,0,0,0,0,0,0,0,0,0,0,0,0,0,0,0,0,0,0,0,0,0,0,0,0,0,0,-0.1949,-0.1949,0,-0.1985,-0.1986,-0.1986,-0.1973,-0.1972,-0.1972,-0.1971,-0.196,-0.196,-0.196,0,0,0,0,0,0,0,0,0,0,0,0,0,-0.1864,-0.1865,-0.1949,-0.1949,-0.195,-0.1985,-0.1986,-0.1986,-0.1973,-0.1972,-0.1972,-0.1971,-0.196,-0.196,-0.196,0,0,0,0,0,0,0,0,0,0,0,0,0,-0.1899,-0.1866,-0.1949,-0.1949,-0.195,-0.1985,-0.1986,-0.1986,-0.1973,-0.1972,-0.1971,-0.197,-0.1959,-0.196,-0.196,-0.1983,0,0,-0.1962,-0.1962,0,0,0,0,0,0,0,0,-0.1897,-0.1902,-0.1948,-0.1949,-0.195,-0.1975,-0.1952,-0.1983,-0.1974,-0.1962,-0.1971,-0.197,-0.1962,-0.1963,-0.197,-0.1982,-0.1982,-0.1962,-0.1962,-0.1962,-0.1962,0,0,0,0,0,0,0,-0.1895,-0.19,-0.1961,-0.1949,-0.195,-0.1947,-0.195,-0.1958,-0.1965,-0.1963,-0.1963,-0.197,-0.1962,-0.1969,-0.1969,-0.1981,-0.1962,-0.1962,-0.1962,-0.1963,-0.2056,-0.2058,0,0,0,0,0,0,-0.1896,-0.1898,-0.196,-0.1963,-0.1923,-0.1949,-0.1953,-0.1967,-0.1966,-0.1966,-0.1971,-0.197,-0.1969,-0.1969,-0.1969,-0.2008,-0.1962,-0.1963,-0.1963,-0.2054,-0.2056,-0.2059,0,0,0,0,0,0,-0.1894,-0.1901,-0.1959,-0.1932,-0.1939,-0.1952,-0.1967,-0.1968,-0.1974,-0.1973,-0.1971,-0.1976,-0.1968,-0.1968,-0.1993,-0.2006,-0.1963,-0.1963,-0.2051,-0.2054,-0.2058,-0.2077,0,0,0,0,0,0,-0.1891,-0.19,-0.1908,-0.1933,-0.1941,-0.1984,-0.1968,-0.1969,-0.1981,-0.1979,-0.1977,-0.1975,-0.1967,-0.1993,-0.1994,-0.2006,-0.1964,-0.2048,-0.2053,-0.2056,-0.2074,-0.2081,-0.2087,0,0,0,0,0,-0.1888,-0.1903,-0.1908,-0.1916,-0.1952,-0.1985,-0.1989,-0.1992,-0.1982,-0.1992,-0.2,-0.1975,-0.202,-0.1995,-0.1996,-0.2008,-0.2046,-0.2051,-0.2056,-0.2071,-0.208,-0.2087,0,0,0,0,0,0,-0.1869,-0.1904,-0.191,-0.1935,-0.196,-0.1983,-0.1992,-0.1996,-0.2011,-0.2007,-0.1999,-0.2,-0.2026,-0.2027,-0.2,-0.2054,-0.203,-0.2036,-0.2042,-0.205,-0.2056,-0.2059,-0.1964,0,0,0,0,0,-0.1871,-0.1888,-0.1924,-0.1941,-0.1956,-0.1975,-0.1987,-0.1994,-0.2012,-0.2017,-0.2019,-0.2031,-0.2049,-0.2056,-0.207,-0.2097,-0.2098,-0.2111,-0.2118,-0.2123,-0.213,-0.2154,-0.2162,-0.2075,-0.2075,-0.2075,0,0,-0.1866,-0.1888,-0.1897,-0.1938,-0.1955,-0.1987,-0.1979,-0.2003,-0.203,-0.2014,-0.2044,-0.2049,-0.2064,-0.2095,-0.2107,-0.2094,-0.215,-0.2129,-0.2133,-0.2138,-0.216,-0.2168,-0.2175,-0.2078,-0.2078,-0.2077,0,0,-0.1867,-0.1889,-0.1906,-0.1935,-0.197,-0.1991,-0.2,-0.2032,-0.2045,-0.2081,-0.208,-0.2102,-0.2124,-0.2142,-0.2153,-0.221,-0.2183,-0.2211,-0.2242,-0.2264,-0.2271,-0.2277,-0.2285,-0.2292,-0.2214,-0.2214,-0.2214,0,-0.1858,-0.1892,-0.1915,-0.1946,-0.1974,-0.1996,-0.2029,-0.2054,-0.2089,-0.2112,-0.2094,-0.2152,-0.215,-0.2202,-0.2217,-0.2221,-0.2223,-0.2201,-0.227,-0.2275,-0.2281,-0.2288,-0.2295,-0.2216,-0.2216,-0.2215,-0.2215,0,-0.188,-0.191,-0.1925,-0.1974,-0.2007,-0.2039,-0.2085,-0.2118,-0.2132,-0.2156,-0.2206,-0.2215,-0.2247,-0.2252,-0.2245,-0.2293,-0.2279,-0.2269,-0.2239,-0.229,-0.2296,-0.2302,-0.2218,-0.2217,-0.2217,-0.2217,0,0,-0.1849,-0.1925,-0.1928,-0.1962,-0.2027,-0.2059,-0.2117,-0.2179,-0.222,-0.2245,-0.2295,-0.2322,-0.2319,-0.2333,-0.2331,-0.2348,-0.2376,-0.2321,-0.2322,-0.2312,-0.2416,-0.2368,-0.237,-0.2371,-0.2372,-0.2373,-0.2401,0,-0.1857,-0.1914,-0.1957,-0.2019,-0.2057,-0.2113,-0.2169,-0.2229,-0.2269,-0.2322,-0.2345,-0.2381,-0.2354,-0.2362,-0.2379,-0.2379,-0.2396,-0.2369,-0.2385,-0.2385,-0.2321,-0.2377,-0.2181,-0.2186,-0.2408,-0.2409,-0.2409,0,-0.1862,-0.1905,-0.1962,-0.2056,-0.2079,-0.2121,-0.222,-0.2273,-0.2357,-0.2388,-0.243,-0.2443,-0.2478,-0.2441,-0.247,-0.245,-0.2437,-0.2433,-0.2434,-0.2387,-0.235,-0.2175,-0.2189,-0.242,-0.2419,-0.2418,-0.2418,0,-0.1825,-0.1911,-0.1956,-0.1987,-0.2093,-0.2135,-0.2191,-0.2285,-0.2339,-0.2421,-0.2458,-0.2505,-0.2522,-0.2525,-0.251,-0.2488,-0.2537,-0.2506,-0.2459,-0.2454,-0.2291,-0.227,-0.2535,-0.2535,-0.2534,-0.2534,-0.2534,0,-0.1818,-0.1855,-0.1941,-0.1968,-0.2037,-0.2115,-0.2194,-0.2262,-0.2356,-0.2414,-0.2473,-0.2515,-0.2541,-0.2568,-0.2544,-0.2525,-0.2565,-0.2477,-0.2466,-0.2294,-0.2274,-0.2479,-0.2472,-0.2535,-0.2535,-0.2535,-0.2535,0,-0.1766,-0.1823,-0.1881,-0.1984,-0.2019,-0.2062,-0.2183,-0.2233,-0.2332,-0.2409,-0.2431,-0.2527,-0.2553,-0.2581,-0.2595,-0.2561,-0.2552,-0.2536,-0.2329,-0.2293,-0.2442,-0.2436,-0.2479,-0.2478,-0.2477,-0.2476,-0.2475,0,-0.1745,-0.1765,-0.1866,-0.1894,-0.1936,-0.2017,-0.2068,-0.2196,-0.2244,-0.2401,-0.2419,-0.2501,-0.2526,-0.2554,-0.251,-0.2484,-0.2535,-0.2296,-0.2223,-0.2455,-0.244,-0.2436,-0.2432,-0.201,-0.2006,-0.2002,-0.1999,0,-0.1693,-0.1723,-0.1767,-0.1821,-0.1872,-0.1938,-0.2016,-0.206,-0.22,-0.2276,-0.2359,-0.2403,-0.2445,-0.234,-0.2333,-0.2281,-0.2284,-0.2221,-0.2523,-0.2062,-0.2017,-0.2001,-0.2012,-0.1966,-0.1969,-0.1972,-0.1974,-0.1975,-0.1638,-0.1648,-0.169,-0.1737,-0.1789,-0.1821,-0.1841,-0.1928,-0.2,-0.2083,-0.221,-0.2225,-0.2233,-0.212,-0.2037,-0.1969,-0.211,-0.2005,-0.2014,-0.2028,-0.1976,-0.1932,-0.1855,-0.1858,-0.186,-0.1862,-0.1864,0,-0.1557,-0.1573,-0.1602,-0.1645,-0.1648,-0.1714,-0.1772,-0.1761,-0.1794,-0.1892,-0.1958,-0.1825,-0.1786,-0.1794,-0.1644,-0.1626,-0.1581,-0.1552,-0.1484,-0.1518,-0.1548,-0.147,-0.1215,-0.1214,-0.1212,-0.121,0,0,-0.1511,-0.1499,-0.1514,-0.1486,-0.1509,-0.1474,-0.1479,-0.1482,-0.1513,-0.1503,-0.1527,-0.1708,-0.1753,-0.149,-0.1425,-0.1296,-0.1385,-0.123,-0.175,-0.1703,-0.173,-0.1811,-0.173,0,0,0,0,0]},{"header":{"parameterUnit":"m.s-1","parameterCategory":2,"la1":30.2991,"la2":30.254,"lo1":-89.0895,"lo2":-89.0444,"dy":0.0017,"dx":0.0017,"nx":28,"ny":28,"refTime":"2024-05-11T09:00:00:Z","depth":"2","parameterNumber":3,"parameterNumberName":"V-component_of_CURRENTS"},"data":[0,0,0,0,0,0,0,0,0,0,0,0,0,0,0,0,0,0,0,0,0,0,0,0,0,0,0,0,0,0,0,0,0,0,0,0,0,0,0,0,0,0,0,0,0,0,0,0,0,0,0,0,0,0,0,0,0,0,-0.0049,-0.0048,0,0.0054,0.0055,0.0056,0.0121,0.0121,0.0122,0.0122,0.0229,0.0231,0.0234,0,0,0,0,0,0,0,0,0,0,0,0,0,-0.0137,-0.0136,-0.0049,-0.0048,-0.0047,0.0053,0.0055,0.0056,0.0121,0.0121,0.0122,0.0122,0.0228,0.0231,0.0234,0,0,0,0,0,0,0,0,0,0,0,0,0,-0.0072,-0.0135,-0.0049,-0.0004,0.0001,0.0053,0.0055,0.0057,0.0121,0.0121,0.0122,0.0122,0.0227,0.0231,0.0235,0.0252,0,0,0.0247,0.0248,0,0,0,0,0,0,0,0,-0.0076,-0.0068,-0.0012,-0.0007,-0.0001,0.0074,0.0063,0.0122,0.0121,0.0077,0.0122,0.0122,0.0176,0.0184,0.0205,0.0257,0.0261,0.0247,0.0249,0.0251,0.0252,0,0,0,0,0,0,0,-0.008,-0.0072,-0.0007,-0.001,-0.0004,0.003,0.0039,0.0075,0.0124,0.0081,0.0086,0.0095,0.0179,0.0201,0.0208,0.0263,0.0247,0.025,0.0253,0.0254,0.0341,0.034,0,0,0,0,0,0,-0.0099,-0.0077,-0.001,-0.0004,-0.004,0.0031,0.0041,0.0051,0.0124,0.0135,0.0094,0.0097,0.0194,0.0203,0.0212,0.0228,0.0251,0.0255,0.0257,0.0341,0.0341,0.034,0,0,0,0,0,0,-0.0101,-0.0094,-0.0015,-0.0039,-0.0027,0.0031,0.0042,0.0052,0.0073,0.0134,0.0146,0.0103,0.0195,0.0206,0.0242,0.0233,0.0256,0.026,0.0341,0.0341,0.034,0.0266,0,0,0,0,0,0,-0.0104,-0.0095,-0.0097,-0.0041,-0.0026,0.0007,0.0041,0.0054,0.0077,0.0083,0.0146,0.0156,0.0196,0.0236,0.0246,0.0239,0.0263,0.0341,0.0341,0.0341,0.0269,0.0264,0.0259,0,0,0,0,0,-0.0107,-0.0113,-0.0097,-0.0089,-0.003,0.0006,0.0016,0.006,0.0077,0.0081,0.0127,0.0154,0.0242,0.0239,0.0251,0.0245,0.0341,0.0341,0.0341,0.0271,0.0265,0.0259,0,0,0,0,0,0,-0.0152,-0.0106,-0.0087,-0.0078,-0.0044,0.0016,0.0024,0.0054,0.0094,0.0098,0.0156,0.0169,0.0196,0.0232,0.0227,0.027,0.0295,0.0297,0.0238,0.0233,0.0228,0.0216,0.0266,0,0,0,0,0,-0.0164,-0.0156,-0.0106,-0.0101,-0.0087,-0.0033,-0.0014,0.0015,0.0059,0.0078,0.0121,0.0167,0.0205,0.0227,0.0265,0.029,0.0328,0.0294,0.0289,0.0285,0.0284,0.0336,0.0335,0.034,0.034,0.034,0,0,-0.0181,-0.0155,-0.015,-0.0111,-0.0079,-0.0066,-0.002,0.0003,0.0015,0.0082,0.0107,0.015,0.0207,0.0234,0.0249,0.0264,0.0302,0.0284,0.028,0.0282,0.0335,0.0335,0.0335,0.034,0.034,0.034,0,0,-0.0214,-0.0188,-0.0192,-0.0167,-0.0127,-0.0094,-0.0093,-0.0038,-0.0014,0.0016,0.0066,0.0106,0.0161,0.0204,0.0232,0.0226,0.0272,0.0233,0.0203,0.0253,0.0252,0.0253,0.029,0.0294,0.0234,0.0233,0.0233,0,-0.0237,-0.0234,-0.0189,-0.0185,-0.0173,-0.0114,-0.0118,-0.0082,-0.0024,-0.0007,0.0011,0.0101,0.0148,0.019,0.019,0.0214,0.0245,0.0216,0.0245,0.0247,0.0248,0.0286,0.0292,0.023,0.023,0.0231,0.0231,0,-0.0267,-0.0266,-0.0267,-0.0244,-0.0225,-0.0219,-0.0169,-0.0149,-0.0116,-0.0074,-0.0031,0.004,0.0094,0.0114,0.0151,0.0185,0.0203,0.0228,0.0255,0.0243,0.0284,0.0291,0.0225,0.0226,0.0227,0.0228,0,0,-0.0314,-0.0295,-0.0295,-0.0304,-0.0258,-0.0251,-0.0232,-0.0198,-0.0188,-0.0126,-0.0105,-0.0031,0.0013,0.0049,0.0103,0.0152,0.019,0.0189,0.0194,0.0217,0.029,0.0326,0.0338,0.0218,0.0219,0.022,0.0309,0,-0.0352,-0.0374,-0.0346,-0.0369,-0.0378,-0.0326,-0.0317,-0.0276,-0.023,-0.0193,-0.011,-0.0069,-0.0013,0.001,0.0068,0.0162,0.0208,0.0163,0.0306,0.031,0.0338,0.0347,0.0302,0.038,0.0316,0.0318,0.0319,0,-0.0386,-0.04,-0.0431,-0.0442,-0.0441,-0.044,-0.0419,-0.0402,-0.0326,-0.0291,-0.0224,-0.0153,-0.0068,-0.0024,0.0129,0.0096,0.0183,0.0256,0.0262,0.0329,0.0361,0.0386,0.0397,0.0331,0.033,0.0329,0.0329,0,-0.0445,-0.0462,-0.0496,-0.0495,-0.0488,-0.0495,-0.0488,-0.0431,-0.0424,-0.0347,-0.0327,-0.0213,-0.0158,-0.0031,0.0132,0.0128,0.03,0.0315,0.0428,0.0431,0.0439,0.0441,0.0416,0.0416,0.0415,0.0415,0.0415,0,-0.0494,-0.0523,-0.0529,-0.0548,-0.0597,-0.0561,-0.0587,-0.0558,-0.0511,-0.0505,-0.0383,-0.0346,-0.0157,-0.0029,0.0113,0.03,0.029,0.0427,0.0462,0.0411,0.041,0.0407,0.0405,0.0418,0.0418,0.0417,0.0416,0,-0.0545,-0.0546,-0.0598,-0.0615,-0.0625,-0.0659,-0.0671,-0.0683,-0.0623,-0.0609,-0.059,-0.0443,-0.0273,-0.0074,0.0142,0.0272,0.0447,0.0512,0.0437,0.0462,0.0543,0.0536,0.0639,0.0641,0.0643,0.0644,0.0646,0,-0.0573,-0.0601,-0.0657,-0.0701,-0.0713,-0.0753,-0.078,-0.0748,-0.0752,-0.0667,-0.0663,-0.0499,-0.0371,-0.0031,0.0224,0.0484,0.0491,0.059,0.0582,0.0546,0.0569,0.0559,0.055,0.0556,0.0557,0.0557,0.0557,0,-0.0634,-0.065,-0.0695,-0.0783,-0.0834,-0.0891,-0.0917,-0.0938,-0.0889,-0.086,-0.0778,-0.0666,-0.0326,-0.0035,0.0318,0.0459,0.0548,0.0606,0.06,0.0509,0.0476,0.0496,0.0488,0.0561,0.056,0.056,0.056,0.056,-0.0679,-0.0732,-0.0792,-0.0875,-0.094,-0.1006,-0.105,-0.1057,-0.1066,-0.1002,-0.0873,-0.0683,-0.0368,0.0121,0.0383,0.0618,0.0608,0.0665,0.066,0.0656,0.0633,0.0606,0.0709,0.071,0.071,0.071,0.0711,0,-0.0734,-0.0794,-0.0881,-0.0979,-0.1059,-0.1071,-0.1127,-0.1149,-0.116,-0.1063,-0.0953,-0.061,-0.0247,0.0083,0.0467,0.0702,0.0674,0.0726,0.0651,0.0646,0.0642,0.0615,0.0689,0.069,0.069,0.0691,0,0,-0.0769,-0.0861,-0.0909,-0.1056,-0.1123,-0.1216,-0.125,-0.1256,-0.12,-0.1116,-0.0962,-0.0704,-0.0273,0.0002,0.0302,0.0506,0.0501,0.051,0.0498,0.0365,0.0359,0.0576,0.0526,0,0,0,0,0]}],[{"header":{"parameterUnit":"m.s-1","parameterCategory":2,"la1":30.2991,"la2":30.254,"lo1":-89.0895,"lo2":-89.0444,"dy":0.0017,"dx":0.0017,"nx":28,"ny":28,"refTime":"2024-05-11T09:00:00:Z","depth":"4","parameterNumber":2,"parameterNumberName":"U-component_of_CURRENTS"},"data":[0,0,0,0,0,0,0,0,0,0,0,0,0,0,0,0,0,0,0,0,0,0,0,0,0,0,0,0,0,0,0,0,0,0,0,0,0,0,0,0,0,0,0,0,0,0,0,0,0,0,0,0,0,0,0,0,0,0,-0.1366,-0.1367,0,-0.143,-0.1431,-0.1432,-0.1467,-0.1467,-0.1467,-0.1467,-0.1509,-0.151,-0.1511,0,0,0,0,0,0,0,0,0,0,0,0,0,-0.1259,-0.126,-0.1366,-0.1367,-0.1368,-0.143,-0.1431,-0.1432,-0.1467,-0.1467,-0.1467,-0.1467,-0.1509,-0.151,-0.1511,0,0,0,0,0,0,0,0,0,0,0,0,0,-0.131,-0.1261,-0.1366,-0.1394,-0.1398,-0.143,-0.1431,-0.1432,-0.1466,-0.1467,-0.1467,-0.1468,-0.1509,-0.151,-0.1511,-0.1511,0,0,-0.1515,-0.1516,0,0,0,0,0,0,0,0,-0.1307,-0.1314,-0.1389,-0.1392,-0.1396,-0.1443,-0.1409,-0.1458,-0.1466,-0.1438,-0.1467,-0.1468,-0.1486,-0.1489,-0.1498,-0.1513,-0.1515,-0.1515,-0.1516,-0.1517,-0.1517,0,0,0,0,0,0,0,-0.1304,-0.1311,-0.139,-0.139,-0.1395,-0.1399,-0.1407,-0.1418,-0.1457,-0.1441,-0.1444,-0.1454,-0.1487,-0.1496,-0.1499,-0.1516,-0.1515,-0.1516,-0.1517,-0.1518,-0.1613,-0.1615,0,0,0,0,0,0,-0.1301,-0.1308,-0.1388,-0.1392,-0.1354,-0.1401,-0.1409,-0.1426,-0.1458,-0.1464,-0.1454,-0.1456,-0.1494,-0.1497,-0.1501,-0.1568,-0.1517,-0.1518,-0.1519,-0.1612,-0.1614,-0.1616,0,0,0,0,0,0,-0.1298,-0.1307,-0.1385,-0.1352,-0.1363,-0.1403,-0.142,-0.1427,-0.146,-0.1468,-0.1473,-0.1483,-0.1495,-0.1499,-0.1542,-0.1567,-0.1518,-0.152,-0.1609,-0.1612,-0.1615,-0.166,0,0,0,0,0,0,-0.1295,-0.1306,-0.1327,-0.1352,-0.1365,-0.1422,-0.1421,-0.1428,-0.1465,-0.1468,-0.1494,-0.1497,-0.1495,-0.154,-0.1543,-0.1568,-0.1521,-0.1607,-0.1611,-0.1614,-0.1656,-0.1664,-0.167,0,0,0,0,0,-0.1291,-0.1314,-0.1327,-0.1338,-0.1389,-0.1423,-0.143,-0.1457,-0.1466,-0.1487,-0.1511,-0.1498,-0.1563,-0.1542,-0.1546,-0.1572,-0.1606,-0.161,-0.1614,-0.1653,-0.1662,-0.167,0,0,0,0,0,0,-0.1278,-0.1321,-0.1336,-0.1372,-0.1404,-0.143,-0.1455,-0.1471,-0.1506,-0.1516,-0.152,-0.1525,-0.157,-0.157,-0.1547,-0.1611,-0.1582,-0.1587,-0.1611,-0.162,-0.1627,-0.1625,-0.1522,0,0,0,0,0,-0.1285,-0.1315,-0.1352,-0.1383,-0.1402,-0.1432,-0.1454,-0.1474,-0.1504,-0.1521,-0.154,-0.1563,-0.1585,-0.1603,-0.1619,-0.1655,-0.1651,-0.1675,-0.1682,-0.1688,-0.1691,-0.1717,-0.1727,-0.1629,-0.1628,-0.1628,0,0,-0.1287,-0.1316,-0.1334,-0.1383,-0.141,-0.1444,-0.1447,-0.1489,-0.1522,-0.1518,-0.1575,-0.1588,-0.16,-0.1642,-0.1662,-0.1648,-0.1715,-0.1693,-0.1698,-0.1698,-0.1722,-0.1732,-0.174,-0.1631,-0.1631,-0.163,0,0,-0.13,-0.1336,-0.1365,-0.1396,-0.1446,-0.1467,-0.1485,-0.1529,-0.1557,-0.1606,-0.1613,-0.1649,-0.1683,-0.1701,-0.171,-0.1769,-0.1749,-0.1774,-0.1811,-0.1837,-0.1845,-0.1851,-0.1856,-0.1863,-0.178,-0.178,-0.1781,0,-0.1303,-0.1346,-0.1378,-0.1414,-0.1446,-0.148,-0.1518,-0.155,-0.1604,-0.1633,-0.1633,-0.1702,-0.171,-0.1761,-0.178,-0.1783,-0.1787,-0.1774,-0.1844,-0.1851,-0.1857,-0.1861,-0.1868,-0.1783,-0.1783,-0.1783,-0.1782,0,-0.1331,-0.1376,-0.1397,-0.1455,-0.1492,-0.1533,-0.158,-0.1625,-0.1659,-0.1689,-0.1754,-0.1774,-0.1812,-0.1823,-0.1817,-0.1871,-0.1855,-0.1846,-0.1818,-0.187,-0.187,-0.1877,-0.1787,-0.1786,-0.1785,-0.1785,0,0,-0.1306,-0.1399,-0.1409,-0.1447,-0.1521,-0.1552,-0.1617,-0.1681,-0.1728,-0.1777,-0.1835,-0.1875,-0.1887,-0.1899,-0.1904,-0.1927,-0.1969,-0.1907,-0.1908,-0.1903,-0.2015,-0.1882,-0.1876,-0.1972,-0.1974,-0.1975,-0.1996,0,-0.132,-0.1392,-0.1438,-0.151,-0.155,-0.1611,-0.1666,-0.173,-0.1782,-0.1845,-0.1881,-0.193,-0.1916,-0.1938,-0.1962,-0.1967,-0.1989,-0.1963,-0.1973,-0.1973,-0.1842,-0.188,-0.198,-0.2,-0.2002,-0.2003,-0.2003,0,-0.1327,-0.1378,-0.1451,-0.1546,-0.157,-0.162,-0.1718,-0.1773,-0.1863,-0.1905,-0.1963,-0.1987,-0.2035,-0.2012,-0.2052,-0.2036,-0.2031,-0.203,-0.2031,-0.1894,-0.1852,-0.194,-0.2015,-0.2014,-0.2013,-0.2012,-0.2012,0,-0.1284,-0.1384,-0.1445,-0.1478,-0.1588,-0.1638,-0.1697,-0.1792,-0.1845,-0.1943,-0.1986,-0.2047,-0.2079,-0.2093,-0.2089,-0.2076,-0.2122,-0.2101,-0.1981,-0.1972,-0.2063,-0.2056,-0.2133,-0.2133,-0.2133,-0.2133,-0.2133,0,-0.1268,-0.1319,-0.1435,-0.1467,-0.1543,-0.1624,-0.1709,-0.1779,-0.1876,-0.1929,-0.2008,-0.2046,-0.2102,-0.213,-0.2116,-0.2061,-0.2144,-0.1988,-0.197,-0.2082,-0.2077,-0.2067,-0.2059,-0.2134,-0.2133,-0.2133,-0.2133,0,-0.1207,-0.1287,-0.136,-0.1483,-0.1526,-0.1577,-0.1705,-0.1752,-0.1859,-0.1931,-0.1961,-0.2058,-0.2077,-0.2117,-0.214,-0.2077,-0.2051,-0.2016,-0.2134,-0.2122,-0.1876,-0.1871,-0.187,-0.1865,-0.1861,-0.1858,-0.1856,0,-0.1179,-0.1213,-0.1351,-0.1391,-0.1451,-0.1544,-0.1598,-0.1726,-0.1767,-0.1913,-0.1922,-0.2001,-0.2042,-0.1972,-0.2023,-0.1995,-0.1973,-0.1953,-0.1907,-0.1867,-0.1851,-0.1851,-0.1851,-0.185,-0.1849,-0.1848,-0.1847,0,-0.1116,-0.1177,-0.1237,-0.1319,-0.1388,-0.1456,-0.154,-0.1563,-0.1694,-0.1816,-0.1833,-0.1849,-0.1874,-0.1876,-0.1877,-0.1856,-0.1959,-0.1913,-0.192,-0.1877,-0.1843,-0.183,-0.1835,-0.1834,-0.1835,-0.1837,-0.1837,0,-0.1063,-0.1086,-0.1165,-0.1227,-0.1306,-0.1329,-0.1399,-0.1443,-0.1507,-0.1665,-0.1666,-0.1754,-0.1851,-0.1804,-0.1803,-0.1772,-0.1735,-0.1677,-0.1695,-0.171,-0.1647,-0.158,-0.1475,0,0,0,0,0,-0.0998,-0.1013,-0.1061,-0.1124,-0.1192,-0.1233,-0.1336,-0.1402,-0.1539,-0.1505,-0.1581,-0.1595,-0.1599,-0.1646,-0.1577,-0.1717,-0.1735,-0.1629,-0.1677,-0.1761,-0.1776,-0.1715,0,0,0,0,0,0,-0.0953,-0.0996,-0.1022,-0.1015,-0.1031,-0.1089,-0.1146,-0.1241,-0.123,-0.1375,-0.1379,-0.1495,-0.1512,-0.1609,-0.1543,-0.1555,-0.1552,-0.1692,-0.1687,-0.1752,-0.1766,-0.1778,-0.1721,0,0,0,0,0]},{"header":{"parameterUnit":"m.s-1","parameterCategory":2,"la1":30.2991,"la2":30.254,"lo1":-89.0895,"lo2":-89.0444,"dy":0.0017,"dx":0.0017,"nx":28,"ny":28,"refTime":"2024-05-11T09:00:00:Z","depth":"4","parameterNumber":3,"parameterNumberName":"V-component_of_CURRENTS"},"data":[0,0,0,0,0,0,0,0,0,0,0,0,0,0,0,0,0,0,0,0,0,0,0,0,0,0,0,0,0,0,0,0,0,0,0,0,0,0,0,0,0,0,0,0,0,0,0,0,0,0,0,0,0,0,0,0,0,0,0.0003,0.0003,0,0.0081,0.0082,0.0083,0.0136,0.0137,0.0137,0.0137,0.023,0.0232,0.0234,0,0,0,0,0,0,0,0,0,0,0,0,0,-0.0058,-0.0057,0.0002,0.0003,0.0004,0.008,0.0082,0.0083,0.0136,0.0137,0.0137,0.0137,0.0229,0.0231,0.0234,0,0,0,0,0,0,0,0,0,0,0,0,0,-0.0009,-0.0057,0.0002,0.0039,0.0043,0.008,0.0082,0.0083,0.0136,0.0137,0.0137,0.0137,0.0228,0.0231,0.0235,0.0247,0,0,0.0245,0.0246,0,0,0,0,0,0,0,0,-0.0012,-0.0007,0.0033,0.0036,0.0041,0.0098,0.0094,0.0138,0.0136,0.0102,0.0137,0.0137,0.0186,0.0192,0.0208,0.0252,0.0256,0.0245,0.0247,0.0248,0.0249,0,0,0,0,0,0,0,-0.0016,-0.001,0.0035,0.0033,0.0038,0.0066,0.0073,0.0103,0.0142,0.0105,0.0109,0.0115,0.0188,0.0205,0.0211,0.0257,0.0245,0.0248,0.025,0.0251,0.0327,0.0327,0,0,0,0,0,0,-0.0031,-0.0013,0.0032,0.0037,0.0013,0.0066,0.0074,0.008,0.0142,0.0151,0.0115,0.0117,0.0199,0.0207,0.0214,0.0231,0.0248,0.0252,0.0253,0.0327,0.0327,0.0327,0,0,0,0,0,0,-0.0033,-0.0028,0.0029,0.0013,0.0022,0.0067,0.0073,0.0082,0.0099,0.0148,0.0158,0.0123,0.02,0.021,0.0241,0.0235,0.0253,0.0256,0.0327,0.0327,0.0327,0.0265,0,0,0,0,0,0,-0.0035,-0.0029,-0.0031,0.0011,0.0022,0.0046,0.0073,0.0083,0.0102,0.0106,0.0159,0.0168,0.0201,0.0236,0.0244,0.024,0.0259,0.0327,0.0327,0.0327,0.0267,0.0263,0.0259,0,0,0,0,0,-0.0037,-0.0042,-0.0031,-0.0026,0.0018,0.0045,0.0053,0.0088,0.0101,0.0106,0.0143,0.0166,0.0242,0.0239,0.0249,0.0244,0.0327,0.0327,0.0327,0.0269,0.0264,0.0259,0,0,0,0,0,0,-0.0069,-0.0036,-0.0023,-0.0018,0.0008,0.0054,0.006,0.0083,0.0117,0.0121,0.0168,0.0179,0.0204,0.0234,0.0229,0.0267,0.0288,0.029,0.024,0.0236,0.0232,0.022,0.0261,0,0,0,0,0,-0.0079,-0.0075,-0.0038,-0.0036,-0.0025,0.0016,0.0031,0.0054,0.0089,0.0104,0.0141,0.018,0.0212,0.0231,0.0263,0.0284,0.0314,0.0289,0.0285,0.0281,0.0279,0.0321,0.0321,0.0327,0.0327,0.0327,0,0,-0.0091,-0.0073,-0.0071,-0.0043,-0.0019,-0.0009,0.0026,0.0044,0.0053,0.0108,0.013,0.0167,0.0214,0.0238,0.0251,0.0262,0.0294,0.0281,0.0278,0.0278,0.0321,0.032,0.032,0.0327,0.0327,0.0327,0,0,-0.0116,-0.0099,-0.0104,-0.0084,-0.0056,-0.0031,-0.003,0.0013,0.0032,0.0057,0.0098,0.0132,0.018,0.0214,0.0237,0.0233,0.0271,0.0241,0.0214,0.0254,0.0254,0.0254,0.0281,0.0284,0.0241,0.0241,0.0241,0,-0.0133,-0.0134,-0.0101,-0.0099,-0.0092,-0.0046,-0.0051,-0.0022,0.0024,0.0036,0.0054,0.0127,0.0169,0.02,0.0202,0.0223,0.0248,0.0225,0.0248,0.0249,0.025,0.0278,0.0283,0.0238,0.0238,0.0239,0.0239,0,-0.0156,-0.0158,-0.016,-0.0145,-0.0133,-0.0129,-0.0091,-0.0076,-0.005,-0.0018,0.0016,0.0076,0.0118,0.0137,0.0171,0.0197,0.0212,0.0235,0.0256,0.0246,0.0276,0.0282,0.0234,0.0235,0.0236,0.0236,0,0,-0.019,-0.0181,-0.0182,-0.0192,-0.0159,-0.0156,-0.0144,-0.0121,-0.0118,-0.0065,-0.0054,0.0012,0.0047,0.0076,0.0123,0.0164,0.0196,0.02,0.0203,0.0218,0.0276,0.0266,0.0271,0.0222,0.0223,0.0224,0.0289,0,-0.022,-0.0241,-0.0223,-0.0246,-0.0255,-0.0219,-0.0216,-0.0188,-0.0153,-0.0128,-0.006,-0.0029,0.0023,0.0041,0.0091,0.0172,0.0209,0.0175,0.029,0.0294,0.028,0.0277,0.0226,0.0294,0.0295,0.0296,0.0297,0,-0.0245,-0.026,-0.0291,-0.0308,-0.031,-0.0314,-0.0309,-0.0299,-0.0244,-0.0217,-0.0166,-0.0108,-0.0039,0.0004,0.0132,0.0107,0.0183,0.0247,0.0251,0.0268,0.0294,0.0311,0.0307,0.0306,0.0305,0.0305,0.0304,0,-0.0288,-0.0309,-0.0343,-0.0345,-0.0349,-0.0362,-0.0364,-0.0327,-0.0327,-0.0272,-0.0258,-0.0166,-0.0122,-0.0013,0.0128,0.0128,0.0269,0.0287,0.0346,0.0346,0.0362,0.0362,0.037,0.037,0.0369,0.0369,0.0369,0,-0.032,-0.035,-0.037,-0.0387,-0.0438,-0.0417,-0.0451,-0.0433,-0.0405,-0.0405,-0.031,-0.028,-0.0122,-0.0017,0.0107,0.0244,0.0255,0.0339,0.0364,0.0334,0.0329,0.0366,0.0364,0.0372,0.0371,0.0371,0.037,0,-0.0352,-0.0363,-0.0413,-0.0443,-0.0459,-0.0494,-0.0523,-0.0538,-0.0501,-0.0495,-0.0482,-0.0364,-0.0229,-0.0068,0.0115,0.0207,0.0345,0.0391,0.0338,0.036,0.0396,0.0391,0.0448,0.0449,0.0449,0.0449,0.0449,0,-0.0368,-0.0394,-0.0462,-0.0505,-0.0524,-0.0571,-0.0603,-0.0591,-0.0598,-0.0542,-0.0537,-0.0415,-0.0319,-0.0073,0.01,0.032,0.0355,0.0418,0.0413,0.0386,0.0405,0.0399,0.0394,0.045,0.045,0.045,0.045,0,-0.0403,-0.0429,-0.0473,-0.0561,-0.0616,-0.0674,-0.0709,-0.0721,-0.0695,-0.0667,-0.0581,-0.0443,-0.0292,-0.0089,0.0085,0.0248,0.0373,0.042,0.0421,0.0417,0.0388,0.0405,0.04,0.045,0.045,0.045,0.045,0,-0.043,-0.0476,-0.0537,-0.0613,-0.0689,-0.0744,-0.0762,-0.0757,-0.0755,-0.0679,-0.0652,-0.0471,-0.0363,-0.0125,0.004,0.0194,0.0229,0.0274,0.0282,0.0284,0.0222,0.016,0.0171,0,0,0,0,0,-0.0449,-0.0506,-0.0585,-0.0668,-0.0739,-0.078,-0.0817,-0.0816,-0.0788,-0.0742,-0.0694,-0.0547,-0.0297,-0.0178,-0.0029,0.0039,0.0251,0.0218,0.0305,0.0454,0.0453,0.0409,0,0,0,0,0,0,-0.0467,-0.0544,-0.0589,-0.0689,-0.075,-0.0824,-0.085,-0.0835,-0.0793,-0.0743,-0.0608,-0.0524,-0.0277,-0.039,-0.0032,0.0018,0.0091,0.0342,0.0345,0.0455,0.0454,0.0453,0.0407,0,0,0,0,0]}]]